[[{"header":{"parameterUnit":"m.s-1","parameterCategory":1,"la1":30.2991,"la2":30.254,"lo1":-89.0895,"lo2":-89.0444,"dy":0.0017,"dx":0.0017,"nx":28,"ny":28,"refTime":"2025-03-26T09:00:00:Z","depth":0,"parameterNumber":2,"parameterNumberName":"U-component_of_WINDS"},"data":[0,0,0,0,0,0,0,0,0,0,0,0,0,0,0,0,0,0,0,0,0,0,0,0,0,0,0,0,0,0,0,0,0,0,0,0,0,0,0,0,0,0,0,0,0,0,0,0,0,0,0,0,0,0,0,0,0,0,-0.0801,-0.08,0,-0.0689,-0.0688,-0.0687,-0.0625,-0.0625,-0.0625,-0.0625,-0.0512,-0.0509,-0.0506,0,0,0,0,0,0,0,0,0,0,0,0,0,-0.0964,-0.0961,-0.0801,-0.08,-0.0799,-0.069,-0.0688,-0.0686,-0.0626,-0.0625,-0.0625,-0.0625,-0.0513,-0.0509,-0.0506,0,0,0,0,0,0,0,0,0,0,0,0,0,-0.0877,-0.096,-0.0802,-0.0755,-0.075,-0.069,-0.0688,-0.0686,-0.0626,-0.0625,-0.0625,-0.0625,-0.0514,-0.0509,-0.0505,-0.0484,0,0,-0.0492,-0.049,0,0,0,0,0,0,0,0,-0.0882,-0.0871,-0.0763,-0.0758,-0.0752,-0.0671,-0.0704,-0.0618,-0.0626,-0.0673,-0.0625,-0.0625,-0.0565,-0.0556,-0.0536,-0.0478,-0.0473,-0.0492,-0.0489,-0.0487,-0.0486,0,0,0,0,0,0,0,-0.0888,-0.0875,-0.0757,-0.0762,-0.0755,-0.074,-0.0727,-0.0687,-0.0622,-0.0669,-0.0664,-0.0651,-0.0562,-0.054,-0.0533,-0.0472,-0.0492,-0.0488,-0.0485,-0.0484,-0.0391,-0.0391,0,0,0,0,0,0,-0.0901,-0.0881,-0.0761,-0.0754,-0.0818,-0.0737,-0.0723,-0.0697,-0.0622,-0.061,-0.0652,-0.0649,-0.0548,-0.0538,-0.0529,-0.0499,-0.0487,-0.0483,-0.0481,-0.0391,-0.0391,-0.0391,0,0,0,0,0,0,-0.0905,-0.0891,-0.0765,-0.0816,-0.0799,-0.0735,-0.0706,-0.0695,-0.0674,-0.0609,-0.0597,-0.0642,-0.0547,-0.0535,-0.0495,-0.0494,-0.0481,-0.0477,-0.0391,-0.0391,-0.0391,-0.0438,0,0,0,0,0,0,-0.091,-0.0893,-0.0884,-0.0816,-0.0796,-0.0733,-0.0706,-0.0693,-0.0666,-0.0662,-0.0597,-0.0586,-0.0546,-0.0502,-0.0491,-0.0488,-0.0474,-0.0391,-0.0391,-0.0391,-0.0437,-0.044,-0.0443,0,0,0,0,0,-0.0916,-0.0902,-0.0883,-0.0869,-0.0783,-0.0733,-0.0722,-0.0677,-0.0666,-0.0657,-0.0615,-0.0588,-0.0496,-0.0499,-0.0486,-0.0481,-0.0391,-0.0391,-0.0391,-0.0435,-0.044,-0.0443,0,0,0,0,0,0,-0.0971,-0.0892,-0.0871,-0.0834,-0.0791,-0.0723,-0.071,-0.0683,-0.0642,-0.0639,-0.0585,-0.057,-0.0536,-0.0504,-0.0509,-0.0456,-0.044,-0.0438,-0.0478,-0.0482,-0.0485,-0.0494,-0.047,0,0,0,0,0,-0.0979,-0.0945,-0.0877,-0.0852,-0.0831,-0.0774,-0.0751,-0.0719,-0.0673,-0.0654,-0.061,-0.0566,-0.0527,-0.0502,-0.0463,-0.0432,-0.0417,-0.0422,-0.0425,-0.0428,-0.0427,-0.0409,-0.041,-0.0392,-0.0392,-0.0392,0,0,-0.0995,-0.0948,-0.0929,-0.0862,-0.0824,-0.079,-0.0759,-0.0725,-0.0699,-0.0649,-0.0609,-0.0575,-0.0522,-0.0487,-0.0469,-0.0459,-0.0429,-0.0429,-0.0432,-0.0429,-0.0409,-0.0411,-0.0412,-0.0392,-0.0392,-0.0392,0,0,-0.1007,-0.0968,-0.0942,-0.0905,-0.0849,-0.0811,-0.0805,-0.0741,-0.0717,-0.0675,-0.0637,-0.0606,-0.054,-0.0504,-0.0478,-0.0476,-0.0449,-0.0465,-0.0482,-0.0464,-0.0466,-0.0467,-0.0467,-0.0467,-0.0464,-0.0464,-0.0464,0,-0.1035,-0.0981,-0.0932,-0.09,-0.0871,-0.0824,-0.0798,-0.0764,-0.0699,-0.068,-0.067,-0.0587,-0.0548,-0.0503,-0.0503,-0.0483,-0.0475,-0.0472,-0.0469,-0.047,-0.047,-0.0469,-0.0469,-0.0466,-0.0466,-0.0466,-0.0465,0,-0.1018,-0.0982,-0.0968,-0.0905,-0.0875,-0.0846,-0.0793,-0.0768,-0.0739,-0.0703,-0.0662,-0.0614,-0.0564,-0.0551,-0.0523,-0.0503,-0.0498,-0.048,-0.0462,-0.0475,-0.0473,-0.0473,-0.0469,-0.0468,-0.0468,-0.0467,0,0,-0.1062,-0.0972,-0.0968,-0.0939,-0.0873,-0.0845,-0.0813,-0.0764,-0.0745,-0.0701,-0.0674,-0.0619,-0.0601,-0.0571,-0.0538,-0.0523,-0.0525,-0.0505,-0.0503,-0.0511,-0.05,-0.0515,-0.0516,-0.0506,-0.0506,-0.0506,-0.0505,0,-0.1065,-0.1007,-0.0961,-0.092,-0.0886,-0.0841,-0.0813,-0.0771,-0.0736,-0.0702,-0.0664,-0.0626,-0.0605,-0.0587,-0.0569,-0.0528,-0.0522,-0.0528,-0.0481,-0.048,-0.0496,-0.0515,-0.053,-0.0532,-0.0504,-0.0504,-0.0504,0,-0.1061,-0.1018,-0.0974,-0.0912,-0.0896,-0.0872,-0.0823,-0.0792,-0.0742,-0.0718,-0.0684,-0.065,-0.0616,-0.0602,-0.0554,-0.0559,-0.0537,-0.0514,-0.0513,-0.0507,-0.0493,-0.051,-0.0531,-0.0532,-0.0502,-0.0502,-0.0502,0,-0.1099,-0.103,-0.0994,-0.0971,-0.0897,-0.0882,-0.0851,-0.0801,-0.0774,-0.0732,-0.0714,-0.0668,-0.0644,-0.0609,-0.0564,-0.0558,-0.0521,-0.0503,-0.05,-0.0502,-0.0495,-0.0496,-0.0514,-0.0481,-0.0481,-0.0481,-0.0481,0,-0.1107,-0.1082,-0.101,-0.0988,-0.0959,-0.0907,-0.0879,-0.0844,-0.08,-0.0771,-0.0729,-0.0703,-0.0644,-0.0611,-0.0575,-0.0541,-0.053,-0.051,-0.0501,-0.0514,-0.0517,-0.05,-0.0499,-0.048,-0.048,-0.0481,-0.0481,0,-0.1145,-0.1095,-0.1054,-0.0987,-0.097,-0.0951,-0.0894,-0.0872,-0.0834,-0.0798,-0.0787,-0.0728,-0.0687,-0.0638,-0.0581,-0.0557,-0.0526,-0.0513,-0.0543,-0.0538,-0.0538,-0.0539,-0.0545,-0.0544,-0.0512,-0.0512,-0.0513,0,-0.1154,-0.1133,-0.1064,-0.1041,-0.1011,-0.0975,-0.0947,-0.0896,-0.0869,-0.0811,-0.0795,-0.0751,-0.0712,-0.0648,-0.0601,-0.0557,-0.0543,-0.0548,-0.0536,-0.055,-0.0543,-0.0545,-0.0543,-0.0551,-0.0552,-0.0552,-0.0553,0,-0.1175,-0.1152,-0.1113,-0.1066,-0.1034,-0.0995,-0.0954,-0.0938,-0.0878,-0.085,-0.0807,-0.0777,-0.0718,-0.0675,-0.0625,-0.0593,-0.0563,-0.0557,-0.0554,-0.0567,-0.0586,-0.0577,-0.0553,-0.0557,-0.0557,-0.0556,-0.0556,-0.0556,-0.1199,-0.1179,-0.1127,-0.1085,-0.1049,-0.1011,-0.0987,-0.0946,-0.0909,-0.0857,-0.0829,-0.0786,-0.0737,-0.0667,-0.0637,-0.0603,-0.0593,-0.0588,-0.0587,-0.0587,-0.0591,-0.0591,-0.0594,-0.0593,-0.0593,-0.0593,-0.0593,0,-0.1219,-0.1183,-0.1145,-0.1089,-0.1056,-0.103,-0.0983,-0.0958,-0.0921,-0.0878,-0.084,-0.0791,-0.0749,-0.0698,-0.0652,-0.0635,-0.062,-0.0625,-0.0626,-0.0619,-0.0603,-0.061,-0.0638,-0.0638,-0.0638,-0.0638,-0.0638,-0.0638,-0.1226,-0.119,-0.116,-0.1105,-0.107,-0.1028,-0.1003,-0.0968,-0.0933,-0.088,-0.0844,-0.0811,-0.0765,-0.0715,-0.0675,-0.0661,-0.0647,-0.0655,-0.0638,-0.0624,-0.062,-0.0617,-0.0623,-0.0653,-0.0653,-0.0656,-0.0657,-0.0657]},{"header":{"parameterUnit":"m.s-1","parameterCategory":1,"la1":30.2991,"la2":30.254,"lo1":-89.0895,"lo2":-89.0444,"dy":0.0017,"dx":0.0017,"nx":28,"ny":28,"refTime":"2025-03-26T09:00:00:Z","depth":0,"parameterNumber":3,"parameterNumberName":"V-component_of_WINDS"},"data":[0,0,0,0,0,0,0,0,0,0,0,0,0,0,0,0,0,0,0,0,0,0,0,0,0,0,0,0,0,0,0,0,0,0,0,0,0,0,0,0,0,0,0,0,0,0,0,0,0,0,0,0,0,0,0,0,0,0,0.7862,0.7863,0,0.7923,0.7924,0.7925,0.7942,0.7941,0.7941,0.7941,0.8005,0.8007,0.8009,0,0,0,0,0,0,0,0,0,0,0,0,0,0.7759,0.7761,0.7862,0.7863,0.7863,0.7923,0.7924,0.7925,0.7942,0.7941,0.7941,0.794,0.8004,0.8007,0.8009,0,0,0,0,0,0,0,0,0,0,0,0,0,0.7811,0.7762,0.7862,0.7879,0.7881,0.7923,0.7924,0.7925,0.7942,0.7941,0.7941,0.794,0.8003,0.8006,0.8009,0.8039,0,0,0.8019,0.802,0,0,0,0,0,0,0,0,0.7808,0.7815,0.7876,0.7878,0.788,0.7924,0.7912,0.7963,0.7942,0.7919,0.7941,0.794,0.7979,0.7984,0.7996,0.8042,0.8045,0.8019,0.8021,0.8022,0.8023,0,0,0,0,0,0,0,0.7804,0.7812,0.7886,0.7877,0.7879,0.7884,0.789,0.7922,0.7951,0.7921,0.7922,0.7929,0.798,0.7993,0.7998,0.8046,0.8019,0.8022,0.8024,0.8025,0.8118,0.8118,0,0,0,0,0,0,0.7798,0.7809,0.7884,0.7888,0.7842,0.7886,0.7894,0.7911,0.7951,0.7956,0.793,0.793,0.7988,0.7994,0.8,0.8037,0.8022,0.8025,0.8027,0.8117,0.8118,0.8118,0,0,0,0,0,0,0.7795,0.7804,0.7882,0.7849,0.7859,0.7888,0.7908,0.7912,0.7926,0.7957,0.7963,0.7938,0.7988,0.7996,0.8029,0.8039,0.8027,0.8029,0.8116,0.8117,0.8118,0.811,0,0,0,0,0,0,0.7792,0.7803,0.7815,0.7849,0.7861,0.7909,0.7908,0.7914,0.7931,0.7932,0.7967,0.7972,0.7988,0.8024,0.8032,0.8043,0.8032,0.8115,0.8117,0.8118,0.811,0.8111,0.8112,0,0,0,0,0,0.7789,0.7811,0.7815,0.7824,0.7876,0.791,0.7917,0.7935,0.7932,0.7944,0.7963,0.7971,0.8037,0.8028,0.8036,0.8049,0.8115,0.8116,0.8118,0.8109,0.811,0.8112,0,0,0,0,0,0,0.7778,0.7816,0.7821,0.7855,0.7879,0.7913,0.7928,0.7936,0.7961,0.7961,0.7983,0.7991,0.8022,0.8039,0.8028,0.8079,0.8076,0.8079,0.8066,0.8068,0.8069,0.8064,0.8034,0,0,0,0,0,0.7779,0.7804,0.7835,0.7862,0.7874,0.7899,0.7914,0.7926,0.7952,0.7962,0.7985,0.801,0.8036,0.8053,0.8079,0.8112,0.812,0.8125,0.8126,0.8127,0.8129,0.8146,0.8149,0.8123,0.8123,0.8123,0,0,0.7783,0.7807,0.7821,0.7861,0.7881,0.7905,0.7907,0.7933,0.7952,0.7967,0.7998,0.8016,0.8045,0.8078,0.8093,0.8093,0.8138,0.8128,0.8129,0.8131,0.8148,0.8151,0.8153,0.8124,0.8124,0.8124,0,0,0.7802,0.7822,0.7846,0.7866,0.7895,0.7912,0.7917,0.795,0.7961,0.7994,0.8005,0.8027,0.8072,0.8092,0.8108,0.8133,0.8141,0.8141,0.8146,0.8163,0.8165,0.8167,0.8175,0.8177,0.8143,0.8143,0.8143,0,0.7803,0.7839,0.7858,0.7883,0.7899,0.7913,0.7937,0.7956,0.7993,0.8004,0.8003,0.8059,0.808,0.8116,0.8122,0.8135,0.8142,0.8137,0.8163,0.8165,0.8167,0.8175,0.8178,0.8143,0.8143,0.8143,0.8143,0,0.7838,0.7864,0.7879,0.7913,0.7932,0.7957,0.7978,0.7995,0.8005,0.8021,0.8053,0.8079,0.811,0.8119,0.813,0.8157,0.8156,0.8159,0.8156,0.8169,0.8177,0.818,0.8143,0.8143,0.8143,0.8143,0,0,0.7853,0.7895,0.7901,0.7916,0.7949,0.7969,0.7994,0.8023,0.8037,0.8062,0.8083,0.812,0.8122,0.814,0.8153,0.8168,0.8184,0.8169,0.8169,0.817,0.8215,0.8212,0.8216,0.8189,0.819,0.8191,0.8212,0,0.7875,0.7919,0.7935,0.7971,0.7994,0.8007,0.8029,0.8051,0.8067,0.8089,0.8107,0.8132,0.8134,0.8144,0.816,0.8179,0.8194,0.8178,0.8209,0.821,0.82,0.822,0.8217,0.8237,0.8216,0.8216,0.8217,0,0.7907,0.793,0.7968,0.7997,0.8008,0.8027,0.8054,0.8075,0.8101,0.8111,0.8131,0.8142,0.8168,0.8164,0.82,0.8189,0.8203,0.8214,0.8215,0.8219,0.8214,0.8223,0.8243,0.8246,0.8222,0.8221,0.8221,0,0.7912,0.7954,0.7981,0.7994,0.8029,0.8042,0.8057,0.8082,0.8098,0.8122,0.8133,0.816,0.8175,0.8196,0.8214,0.821,0.8248,0.8246,0.8257,0.8257,0.8264,0.8264,0.8287,0.8274,0.8274,0.8274,0.8274,0,0.7934,0.7957,0.7984,0.8001,0.8026,0.8045,0.807,0.8086,0.8108,0.8128,0.8141,0.816,0.8184,0.8205,0.822,0.8247,0.8254,0.8263,0.8266,0.8261,0.826,0.827,0.8269,0.8275,0.8275,0.8275,0.8274,0,0.7944,0.7963,0.7994,0.8024,0.8032,0.805,0.8075,0.8092,0.8108,0.8134,0.8141,0.8166,0.8192,0.8212,0.8247,0.8257,0.8285,0.8289,0.8276,0.8278,0.8287,0.8286,0.8318,0.8322,0.8307,0.8307,0.8307,0,0.7957,0.7975,0.8006,0.802,0.8035,0.8058,0.8074,0.8093,0.8109,0.8139,0.8152,0.8179,0.8201,0.8243,0.8264,0.829,0.8295,0.8304,0.8299,0.8293,0.8294,0.8293,0.8294,0.8305,0.8305,0.8305,0.8305,0,0.7978,0.7986,0.8008,0.8033,0.8052,0.8073,0.8095,0.8106,0.8128,0.8146,0.8172,0.819,0.8224,0.8251,0.8279,0.8295,0.8304,0.8306,0.831,0.8305,0.8296,0.83,0.8277,0.8306,0.8305,0.8305,0.8305,0.8305,0.7989,0.8005,0.8028,0.8053,0.807,0.809,0.8107,0.8124,0.8146,0.8175,0.8185,0.8212,0.8237,0.8275,0.8291,0.8313,0.8313,0.8319,0.8321,0.8322,0.8321,0.8293,0.8318,0.8318,0.8318,0.8318,0.8318,0,0.8009,0.8025,0.8047,0.8076,0.8095,0.81,0.8124,0.814,0.8163,0.8185,0.8206,0.8236,0.8262,0.8285,0.8311,0.8324,0.8328,0.833,0.8329,0.8333,0.8319,0.8313,0.8326,0.8326,0.8326,0.8326,0.8326,0.8326,0.8022,0.8048,0.8059,0.8094,0.811,0.8136,0.8149,0.8166,0.8184,0.8216,0.8237,0.8251,0.8274,0.8302,0.8325,0.8331,0.834,0.8341,0.8348,0.8335,0.8334,0.8333,0.8327,0.8343,0.8343,0.8359,0.836,0.836]}]]